Time,TemperatureF,DewpointF,PressureIn,WindDirection,WindDirectionDegrees,WindSpeedMPH,WindSpeedGustMPH,Humidity,HourlyPrecipIn,Conditions,Clouds,dailyrainin,SoftwareType,DateUTC
2013-02-11 00:05:00,38.6,32.0,29.35,SSW,202,7.0,21.0,77,0.00,,,-99.99,WeatherLink 5.7,2013-02-11 06:05:00,
2013-02-11 00:19:00,38.0,31.4,29.35,SW,225,7.0,20.0,77,0.00,,,-99.99,WeatherLink 5.7,2013-02-11 06:19:00,
2013-02-11 00:34:00,37.5,31.3,29.35,SW,225,7.0,25.0,78,0.00,,,-99.99,WeatherLink 5.7,2013-02-11 06:34:00,
2013-02-11 00:49:00,37.0,30.8,29.35,SW,225,8.0,26.0,78,0.00,,,-99.99,WeatherLink 5.7,2013-02-11 06:49:00,
2013-02-11 01:05:00,36.5,30.6,29.35,SW,225,9.0,22.0,79,0.00,,,-99.99,WeatherLink 5.7,2013-02-11 07:05:00,
2013-02-11 01:20:00,36.0,30.1,29.36,SW,225,10.0,27.0,79,0.00,,,-99.99,WeatherLink 5.7,2013-02-11 07:20:00,
2013-02-11 01:34:00,35.6,29.7,29.37,SW,225,9.0,26.0,79,0.00,,,-99.99,WeatherLink 5.7,2013-02-11 07:34:00,
2013-02-11 01:49:00,35.3,28.8,29.37,SW,225,9.0,25.0,77,0.01,,,-99.99,WeatherLink 5.7,2013-02-11 07:49:00,
2013-02-11 02:04:00,35.0,28.5,29.37,SW,225,7.0,19.0,77,0.01,,,-99.99,WeatherLink 5.7,2013-02-11 08:04:00,
2013-02-11 02:19:00,34.6,28.4,29.37,SW,225,7.0,19.0,78,0.01,,,-99.99,WeatherLink 5.7,2013-02-11 08:19:00,
2013-02-11 02:35:00,34.3,28.2,29.38,SW,225,8.0,21.0,78,0.01,,,-99.99,WeatherLink 5.7,2013-02-11 08:35:00,
2013-02-11 02:49:00,34.0,28.2,29.37,SW,225,9.0,22.0,79,0.00,,,-99.99,WeatherLink 5.7,2013-02-11 08:49:00,
2013-02-11 03:04:00,34.0,27.9,29.37,WSW,247,9.0,26.0,78,0.00,,,-99.99,WeatherLink 5.7,2013-02-11 09:04:00,
2013-02-11 03:19:00,33.8,27.4,29.38,WSW,247,11.0,32.0,77,0.00,,,-99.99,WeatherLink 5.7,2013-02-11 09:19:00,
2013-02-11 03:34:00,33.7,26.6,29.38,WSW,247,14.0,31.0,75,0.00,,,-99.99,WeatherLink 5.7,2013-02-11 09:34:00,
2013-02-11 03:50:00,33.5,26.7,29.39,WSW,247,12.0,34.0,76,0.00,,,-99.99,WeatherLink 5.7,2013-02-11 09:50:00,
2013-02-11 04:05:00,33.2,26.1,29.39,WSW,247,15.0,34.0,75,0.00,,,-99.99,WeatherLink 5.7,2013-02-11 10:05:00,
2013-02-11 04:19:00,32.8,26.1,29.39,WSW,247,13.0,31.0,76,0.00,,,-99.99,WeatherLink 5.7,2013-02-11 10:19:00,
2013-02-11 04:34:00,32.5,26.4,29.39,SW,225,8.0,30.0,78,0.00,,,-99.99,WeatherLink 5.7,2013-02-11 10:34:00,
2013-02-11 04:49:00,32.4,26.0,29.40,WSW,247,13.0,29.0,77,0.00,,,-99.99,WeatherLink 5.7,2013-02-11 10:49:00,
2013-02-11 05:05:00,32.4,25.7,29.41,WSW,247,14.0,27.0,76,0.00,,,-99.99,WeatherLink 5.7,2013-02-11 11:05:00,
2013-02-11 05:19:00,32.4,25.4,29.41,WSW,247,13.0,29.0,75,0.00,,,-99.99,WeatherLink 5.7,2013-02-11 11:19:00,
2013-02-11 05:34:00,32.4,25.7,29.42,WSW,247,13.0,26.0,76,0.00,,,-99.99,WeatherLink 5.7,2013-02-11 11:34:00,
2013-02-11 05:49:00,32.2,25.5,29.42,WSW,247,13.0,30.0,76,0.00,,,-99.99,WeatherLink 5.7,2013-02-11 11:49:00,
2013-02-11 06:04:00,32.1,25.4,29.42,WSW,247,12.0,24.0,76,0.00,,,-99.99,WeatherLink 5.7,2013-02-11 12:04:00,
2013-02-11 06:19:00,31.9,25.2,29.43,WSW,247,13.0,28.0,76,0.00,,,-99.99,WeatherLink 5.7,2013-02-11 12:19:00,
2013-02-11 06:35:00,31.8,25.1,29.44,WSW,247,11.0,24.0,76,0.00,,,-99.99,WeatherLink 5.7,2013-02-11 12:35:00,
2013-02-11 06:49:00,31.8,25.1,29.44,WSW,247,12.0,25.0,76,0.00,,,-99.99,WeatherLink 5.7,2013-02-11 12:49:00,
2013-02-11 07:04:00,31.9,25.2,29.45,WSW,247,11.0,26.0,76,0.00,,,-99.99,WeatherLink 5.7,2013-02-11 13:04:00,
2013-02-11 07:19:00,31.9,25.2,29.47,West,270,10.0,22.0,76,0.00,,,-99.99,WeatherLink 5.7,2013-02-11 13:19:00,
2013-02-11 07:35:00,31.6,25.2,29.47,WSW,247,11.0,28.0,77,0.00,,,-99.99,WeatherLink 5.7,2013-02-11 13:35:00,
2013-02-11 07:49:00,30.7,25.9,29.49,WSW,247,10.0,24.0,82,0.00,,,-99.99,WeatherLink 5.7,2013-02-11 13:49:00,
2013-02-11 08:04:00,30.7,25.9,29.50,WSW,247,9.0,22.0,82,0.00,,,-99.99,WeatherLink 5.7,2013-02-11 14:04:00,
2013-02-11 08:19:00,30.3,26.0,29.50,WSW,247,10.0,23.0,84,0.00,,,-99.99,WeatherLink 5.7,2013-02-11 14:19:00,
2013-02-11 08:35:00,30.6,26.3,29.50,WSW,247,10.0,27.0,84,0.00,,,-99.99,WeatherLink 5.7,2013-02-11 14:35:00,
2013-02-11 08:50:00,30.6,26.1,29.51,WSW,247,11.0,27.0,83,0.00,,,-99.99,WeatherLink 5.7,2013-02-11 14:50:00,
2013-02-11 09:04:00,30.3,26.0,29.53,WSW,247,11.0,26.0,84,0.00,,,-99.99,WeatherLink 5.7,2013-02-11 15:04:00,
2013-02-11 09:19:00,30.1,25.8,29.53,WSW,247,12.0,28.0,84,0.00,,,-99.99,WeatherLink 5.7,2013-02-11 15:19:00,
2013-02-11 09:34:00,30.1,25.6,29.55,West,270,10.0,23.0,83,0.00,,,-99.99,WeatherLink 5.7,2013-02-11 15:34:00,
2013-02-11 09:50:00,30.4,25.6,29.56,West,270,10.0,25.0,82,0.00,,,-99.99,WeatherLink 5.7,2013-02-11 15:50:00,
2013-02-11 10:04:00,30.6,25.5,29.57,West,270,12.0,29.0,81,0.00,,,-99.99,WeatherLink 5.7,2013-02-11 16:04:00,
2013-02-11 10:20:00,30.7,25.0,29.57,West,270,11.0,28.0,79,0.00,,,-99.99,WeatherLink 5.7,2013-02-11 16:20:00,
2013-02-11 10:34:00,30.7,25.0,29.58,West,270,11.0,31.0,79,0.00,,,-99.99,WeatherLink 5.7,2013-02-11 16:34:00,
2013-02-11 10:49:00,30.9,24.8,29.60,West,270,11.0,25.0,78,0.00,,,-99.99,WeatherLink 5.7,2013-02-11 16:49:00,
2013-02-11 11:04:00,31.0,24.9,29.60,West,270,9.0,24.0,78,0.00,,,-99.99,WeatherLink 5.7,2013-02-11 17:04:00,
2013-02-11 11:19:00,30.9,24.8,29.61,West,270,11.0,25.0,78,0.00,,,-99.99,WeatherLink 5.7,2013-02-11 17:19:00,
2013-02-11 11:35:00,30.6,24.2,29.61,West,270,10.0,23.0,77,0.00,,,-99.99,WeatherLink 5.7,2013-02-11 17:35:00,
2013-02-11 11:50:00,30.6,23.9,29.62,West,270,12.0,29.0,76,0.00,,,-99.99,WeatherLink 5.7,2013-02-11 17:50:00,
2013-02-11 12:05:00,30.7,24.0,29.63,West,270,12.0,31.0,76,0.00,,,-99.99,WeatherLink 5.7,2013-02-11 18:05:00,
2013-02-11 12:19:00,30.7,23.7,29.64,West,270,11.0,25.0,75,0.00,,,-99.99,WeatherLink 5.7,2013-02-11 18:19:00,
2013-02-11 12:34:00,30.4,23.1,29.65,West,270,10.0,28.0,74,0.00,,,-99.99,WeatherLink 5.7,2013-02-11 18:34:00,
2013-02-11 12:50:00,30.1,22.8,29.65,West,270,12.0,28.0,74,0.00,,,-99.99,WeatherLink 5.7,2013-02-11 18:50:00,
2013-02-11 13:05:00,29.8,22.2,29.67,WNW,292,11.0,24.0,73,0.00,,,-99.99,WeatherLink 5.7,2013-02-11 19:05:00,
2013-02-11 13:19:00,29.7,22.1,29.68,West,270,11.0,27.0,73,0.00,,,-99.99,WeatherLink 5.7,2013-02-11 19:19:00,
2013-02-11 13:34:00,29.7,22.1,29.68,WNW,292,10.0,27.0,73,0.00,,,-99.99,WeatherLink 5.7,2013-02-11 19:34:00,
2013-02-11 13:50:00,29.7,22.1,29.69,West,270,10.0,26.0,73,0.00,,,-99.99,WeatherLink 5.7,2013-02-11 19:50:00,
2013-02-11 14:05:00,29.7,21.8,29.70,WNW,292,10.0,22.0,72,0.00,,,-99.99,WeatherLink 5.7,2013-02-11 20:05:00,
2013-02-11 14:20:00,29.5,21.3,29.71,West,270,11.0,33.0,71,0.00,,,-99.99,WeatherLink 5.7,2013-02-11 20:20:00,
2013-02-11 14:34:00,29.3,21.1,29.72,West,270,11.0,30.0,71,0.00,,,-99.99,WeatherLink 5.7,2013-02-11 20:34:00,
2013-02-11 14:49:00,29.1,21.5,29.73,WNW,292,10.0,21.0,73,0.00,,,-99.99,WeatherLink 5.7,2013-02-11 20:49:00,
2013-02-11 15:04:00,29.0,21.1,29.74,West,270,10.0,22.0,72,0.00,,,-99.99,WeatherLink 5.7,2013-02-11 21:04:00,
2013-02-11 15:20:00,28.8,20.9,29.75,WNW,292,10.0,28.0,72,0.00,,,-99.99,WeatherLink 5.7,2013-02-11 21:20:00,
2013-02-11 15:34:00,28.7,20.5,29.76,WNW,292,12.0,30.0,71,0.00,,,-99.99,WeatherLink 5.7,2013-02-11 21:34:00,
2013-02-11 15:49:00,28.7,20.5,29.76,WNW,292,10.0,24.0,71,0.00,,,-99.99,WeatherLink 5.7,2013-02-11 21:49:00,
2013-02-11 16:04:00,28.7,20.1,29.77,WNW,292,10.0,28.0,70,0.00,,,-99.99,WeatherLink 5.7,2013-02-11 22:04:00,
2013-02-11 16:19:00,28.7,20.5,29.78,WNW,292,7.0,19.0,71,0.00,,,-99.99,WeatherLink 5.7,2013-02-11 22:19:00,
2013-02-11 16:34:00,28.5,20.6,29.78,WNW,292,8.0,18.0,72,0.00,,,-99.99,WeatherLink 5.7,2013-02-11 22:34:00,
2013-02-11 16:50:00,28.5,20.9,29.80,WNW,292,7.0,21.0,73,0.00,,,-99.99,WeatherLink 5.7,2013-02-11 22:50:00,
2013-02-11 17:05:00,28.2,20.7,29.80,WNW,292,7.0,26.0,73,0.00,,,-99.99,WeatherLink 5.7,2013-02-11 23:05:00,
2013-02-11 17:19:00,28.1,19.9,29.81,WNW,292,10.0,24.0,71,0.00,,,-99.99,WeatherLink 5.7,2013-02-11 23:19:00,
2013-02-11 17:34:00,27.9,19.7,29.82,WNW,292,11.0,25.0,71,0.00,,,-99.99,WeatherLink 5.7,2013-02-11 23:34:00,
2013-02-11 17:49:00,27.9,20.0,29.83,WNW,292,6.0,20.0,72,0.00,,,-99.99,WeatherLink 5.7,2013-02-11 23:49:00,
2013-02-11 18:04:00,27.9,20.4,29.84,WNW,292,7.0,19.0,73,0.00,,,-99.99,WeatherLink 5.7,2013-02-12 00:04:00,
2013-02-11 18:20:00,27.8,20.3,29.84,WNW,292,7.0,17.0,73,0.00,,,-99.99,WeatherLink 5.7,2013-02-12 00:20:00,
2013-02-11 18:36:00,27.9,20.7,29.85,WNW,292,8.0,20.0,74,0.00,,,-99.99,WeatherLink 5.7,2013-02-12 00:36:00,
2013-02-11 18:50:00,27.8,20.3,29.86,WNW,292,8.0,21.0,73,0.00,,,-99.99,WeatherLink 5.7,2013-02-12 00:50:00,
2013-02-11 19:07:00,27.6,19.4,29.86,WNW,292,8.0,23.0,71,0.00,,,-99.99,WeatherLink 5.7,2013-02-12 01:07:00,
2013-02-11 19:20:00,27.5,19.3,29.87,WNW,292,9.0,23.0,71,0.00,,,-99.99,WeatherLink 5.7,2013-02-12 01:20:00,
2013-02-11 19:34:00,27.3,19.5,29.87,WNW,292,8.0,19.0,72,0.00,,,-99.99,WeatherLink 5.7,2013-02-12 01:34:00,
2013-02-11 19:49:00,27.3,19.5,29.87,WNW,292,8.0,22.0,72,0.00,,,-99.99,WeatherLink 5.7,2013-02-12 01:49:00,
2013-02-11 20:04:00,27.2,19.7,29.88,West,270,8.0,22.0,73,0.00,,,-99.99,WeatherLink 5.7,2013-02-12 02:04:00,
2013-02-11 20:19:00,27.0,19.8,29.88,West,270,7.0,18.0,74,0.00,,,-99.99,WeatherLink 5.7,2013-02-12 02:19:00,
2013-02-11 20:35:00,26.9,19.7,29.89,WNW,292,6.0,18.0,74,0.00,,,-99.99,WeatherLink 5.7,2013-02-12 02:35:00,
2013-02-11 20:50:00,26.7,19.8,29.89,WNW,292,5.0,15.0,75,0.00,,,-99.99,WeatherLink 5.7,2013-02-12 02:50:00,
2013-02-11 21:05:00,26.6,19.7,29.89,West,270,7.0,21.0,75,0.00,,,-99.99,WeatherLink 5.7,2013-02-12 03:05:00,
2013-02-11 21:19:00,26.6,19.7,29.89,WNW,292,5.0,18.0,75,0.00,,,-99.99,WeatherLink 5.7,2013-02-12 03:19:00,
2013-02-11 21:34:00,26.4,19.9,29.91,WNW,292,6.0,14.0,76,0.00,,,-99.99,WeatherLink 5.7,2013-02-12 03:34:00,
2013-02-11 21:50:00,26.4,19.5,29.91,WNW,292,6.0,18.0,75,0.00,,,-99.99,WeatherLink 5.7,2013-02-12 03:50:00,
2013-02-11 22:04:00,26.1,19.6,29.91,West,270,5.0,15.0,76,0.00,,,-99.99,WeatherLink 5.7,2013-02-12 04:04:00,
2013-02-11 22:20:00,26.0,19.5,29.91,West,270,6.0,16.0,76,0.00,,,-99.99,WeatherLink 5.7,2013-02-12 04:20:00,
2013-02-11 22:35:00,25.7,19.2,29.91,WNW,292,6.0,16.0,76,0.00,,,-99.99,WeatherLink 5.7,2013-02-12 04:35:00,
2013-02-11 22:49:00,25.6,19.1,29.91,WNW,292,6.0,15.0,76,0.00,,,-99.99,WeatherLink 5.7,2013-02-12 04:49:00,
2013-02-11 23:04:00,25.4,18.9,29.92,WNW,292,5.0,15.0,76,0.00,,,-99.99,WeatherLink 5.7,2013-02-12 05:04:00,
2013-02-11 23:19:00,25.4,18.9,29.92,WNW,292,5.0,17.0,76,0.00,,,-99.99,WeatherLink 5.7,2013-02-12 05:19:00,
2013-02-11 23:35:00,25.3,19.1,29.93,WNW,292,5.0,13.0,77,0.00,,,-99.99,WeatherLink 5.7,2013-02-12 05:35:00,
2013-02-11 23:50:00,25.1,18.9,29.93,West,270,3.0,13.0,77,0.00,,,-99.99,WeatherLink 5.7,2013-02-12 05:50:00,